User: anonymous   Login
Location: Champs
(48.8539°N, 2.6040°E)
Time: 13:49:36
(UTC+00:00)
Language:

Cosmos 2112 Rocket - Orbit

View from above orbital plane
View from above orbital plane
View from above satellite
View from above satellite

Ground track
Ground track

The orbit data is extracted from the following two-line orbital elements,

1 21015U 90111B   22020.10829508  .00000105  00000-0  45073-4 0  9999
2 21015  74.0522 299.3892 0021246 152.3316 207.8972 14.36073934726964
Epoch (UTC): 20 January 2022 02:35:56
Eccentricity: 0.0021246
inclination: 74.0522°
perigee height: 756 km
apogee height: 786 km
right ascension of ascending node: 299.3892°
argument of perigee: 152.3316°
revolutions per day: 14.36073934
mean anomaly at epoch: 207.8972°
orbit number at epoch: 72696

The dashed part of the orbit path shows where the satellite is in the earth's shadow,  

DLR